LGR888 HEAZ-HEAT

Flight info

Callsign LGR888
Flight time N/A
Altitude 4000
Route CVO W8 AST
Aircraft R66/L-SFG/C

Departure

Time 2026-05-09 07:23
Airport Almaza Air Force Base (HEAZ)

Arrival

Time N/A
Airport Asyut International Airport (HEAT)
Time Latitude Longitude Altitude Speed Heading
2026-05-09 07:08 30.09281 31.35159 243 ft 0 kts 39°
2026-05-09 07:17 30.09246 31.35186 269 ft 27 kts 146°
2026-05-09 07:18 30.08998 31.35288 322 ft 37 kts 129°
2026-05-09 07:18 30.08804 31.35491 359 ft 37 kts 144°
2026-05-09 07:18 30.08658 31.35665 321 ft 24 kts 150°
2026-05-09 07:18 30.08555 31.35743 293 ft 9 kts 144°
2026-05-09 07:19 30.08554 31.35737 312 ft 5 kts 135°
2026-05-09 07:19 30.08510 31.35743 305 ft 3 kts 107°
2026-05-09 07:19 30.08502 31.35787 345 ft 5 kts 88°
2026-05-09 07:19 30.08485 31.35852 337 ft 3 kts 87°
2026-05-09 07:20 30.08491 31.35867 302 ft 3 kts 110°
2026-05-09 07:20 30.08491 31.35879 295 ft 0 kts 109°
2026-05-09 07:21 30.08481 31.35898 303 ft 10 kts 103°
2026-05-09 07:21 30.08637 31.35962 321 ft 60 kts 14°
2026-05-09 07:21 30.09167 31.35920 409 ft 84 kts 355°
2026-05-09 07:21 30.09738 31.36012 525 ft 87 kts 28°
2026-05-09 07:22 30.10099 31.36574 578 ft 94 kts 68°
2026-05-09 07:22 30.09993 31.37318 671 ft 102 kts 105°
2026-05-09 07:22 30.09554 31.37976 745 ft 111 kts 132°
2026-05-09 07:22 30.08777 31.38231 821 ft 119 kts 168°
2026-05-09 07:23 30.07969 31.38386 947 ft 116 kts 163°
2026-05-09 07:23 30.07157 31.38443 1068 ft 117 kts 170°
2026-05-09 07:23 30.06333 31.38427 1195 ft 117 kts 174°
2026-05-09 07:23 30.05515 31.38374 1324 ft 117 kts 176°
2026-05-09 07:24 30.04725 31.38092 1407 ft 125 kts 209°
2026-05-09 07:24 30.04162 31.37327 1511 ft 124 kts 239°
2026-05-09 07:24 30.03717 31.36471 1630 ft 123 kts 242°
2026-05-09 07:24 30.03278 31.35623 1756 ft 123 kts 242°
2026-05-09 07:25 30.02831 31.34771 1871 ft 123 kts 241°
2026-05-09 07:25 30.02443 31.33897 1985 ft 122 kts 249°
2026-05-09 07:25 30.02079 31.33011 2115 ft 122 kts 249°
2026-05-09 07:25 30.01713 31.32131 2253 ft 122 kts 249°
2026-05-09 07:26 30.01339 31.31242 2378 ft 122 kts 248°
2026-05-09 07:26 30.00973 31.30368 2503 ft 122 kts 249°
2026-05-09 07:26 30.00599 31.29484 2621 ft 122 kts 249°
2026-05-09 07:26 30.00232 31.28594 2723 ft 122 kts 252°
2026-05-09 07:27 29.99913 31.27700 2841 ft 121 kts 253°
2026-05-09 07:27 29.99589 31.26799 2951 ft 122 kts 253°
2026-05-09 07:27 29.99285 31.25857 2960 ft 127 kts 263°
2026-05-09 07:27 29.99125 31.24848 2976 ft 129 kts 266°
2026-05-09 07:28 29.98968 31.23798 2877 ft 136 kts 265°
2026-05-09 07:28 29.98829 31.22727 2766 ft 134 kts 266°
2026-05-09 07:28 29.98694 31.21673 2653 ft 131 kts 265°
2026-05-09 07:28 29.98568 31.20638 2551 ft 128 kts 266°
2026-05-09 07:29 29.98444 31.19619 2444 ft 127 kts 266°
2026-05-09 07:29 29.98273 31.18611 2335 ft 125 kts 266°
2026-05-09 07:29 29.98248 31.17635 2091 ft 124 kts 278°
2026-05-09 07:29 29.98278 31.16685 1972 ft 109 kts 271°
2026-05-09 07:30 29.98269 31.15841 1784 ft 102 kts 272°
2026-05-09 07:30 29.98267 31.15086 1625 ft 83 kts 270°
2026-05-09 07:30 29.98274 31.14530 1534 ft 51 kts 274°
2026-05-09 07:30 29.98304 31.14272 1165 ft 30 kts 280°
2026-05-09 07:31 29.98311 31.14125 610 ft 28 kts 268°
2026-05-09 07:31 29.98322 31.13956 190 ft 27 kts 238°
2026-05-09 07:31 29.98328 31.13754 378 ft 28 kts 229°
2026-05-09 07:31 29.98298 31.13539 539 ft 27 kts 204°
2026-05-09 07:32 29.98173 31.13328 683 ft 36 kts 142°
2026-05-09 07:32 29.97991 31.13218 739 ft 27 kts 97°
2026-05-09 07:32 29.97899 31.13213 710 ft 7 kts 98°
2026-05-09 07:32 29.97914 31.13200 622 ft 9 kts 85°
2026-05-09 07:33 29.97952 31.13150 532 ft 4 kts 93°
2026-05-09 07:33 29.97747 31.13115 487 ft 12 kts 39°
2026-05-09 07:33 29.97748 31.13311 553 ft 48 kts 74°
2026-05-09 07:34 29.97828 31.13843 506 ft 81 kts 54°
2026-05-09 07:34 29.97988 31.14400 775 ft 66 kts 71°
2026-05-09 07:34 29.97957 31.14894 1041 ft 59 kts 82°
2026-05-09 07:34 29.97999 31.15345 1240 ft 58 kts 58°
2026-05-09 07:35 29.98015 31.15908 1225 ft 86 kts 86°
2026-05-09 07:35 29.97909 31.16618 1250 ft 91 kts 87°
2026-05-09 07:35 29.97798 31.17338 1287 ft 92 kts 88°
2026-05-09 07:35 29.97685 31.18067 1324 ft 92 kts 88°
2026-05-09 07:36 29.97572 31.18794 1370 ft 92 kts 88°
2026-05-09 07:36 29.97366 31.19509 1369 ft 101 kts 109°
2026-05-09 07:36 29.96826 31.20085 1377 ft 106 kts 128°
2026-05-09 07:36 29.96228 31.20595 1403 ft 107 kts 134°
2026-05-09 07:37 29.95594 31.21029 1422 ft 110 kts 141°
2026-05-09 07:37 29.94795 31.21170 1405 ft 118 kts 167°
2026-05-09 07:37 29.93972 31.21191 1452 ft 117 kts 167°
2026-05-09 07:37 29.93160 31.21209 1471 ft 118 kts 167°
2026-05-09 07:38 29.92319 31.21231 1476 ft 120 kts 169°
2026-05-09 07:38 29.91485 31.21273 1473 ft 120 kts 167°
2026-05-09 07:38 29.90627 31.21336 1471 ft 118 kts 161°
2026-05-09 07:38 29.89818 31.21497 1480 ft 117 kts 156°
2026-05-09 07:39 29.89020 31.21698 1477 ft 118 kts 156°
2026-05-09 07:39 29.88195 31.21903 1479 ft 119 kts 156°
2026-05-09 07:39 29.87388 31.22111 1471 ft 119 kts 156°
2026-05-09 07:39 29.86581 31.22317 1473 ft 119 kts 156°
2026-05-09 07:40 29.85769 31.22520 1471 ft 119 kts 156°
2026-05-09 07:40 29.84953 31.22727 1472 ft 118 kts 154°
2026-05-09 07:40 29.84254 31.23144 1470 ft 114 kts 137°
2026-05-09 07:40 29.83569 31.23610 1470 ft 109 kts 128°
2026-05-09 07:41 29.83269 31.24307 1478 ft 91 kts 79°
2026-05-09 07:41 29.83549 31.24877 1477 ft 84 kts 32°
2026-05-09 07:41 29.84147 31.24933 1473 ft 90 kts 357°
2026-05-09 07:41 29.84744 31.24639 1476 ft 98 kts 335°
2026-05-09 07:42 29.85252 31.24066 1475 ft 104 kts 316°
2026-05-09 07:42 29.85701 31.23408 1469 ft 105 kts 315°
2026-05-09 07:42 29.86151 31.22743 1472 ft 105 kts 316°
2026-05-09 07:42 29.86615 31.22089 1479 ft 105 kts 319°
2026-05-09 07:43 29.87093 31.21432 1478 ft 110 kts 318°
2026-05-09 07:43 29.87605 31.20767 1474 ft 110 kts 319°
2026-05-09 07:43 29.88123 31.20107 1477 ft 112 kts 319°
2026-05-09 07:43 29.88652 31.19441 1481 ft 112 kts 319°
2026-05-09 07:44 29.89181 31.18771 1480 ft 113 kts 319°
2026-05-09 07:44 29.89709 31.18113 1485 ft 113 kts 320°
2026-05-09 07:44 29.90250 31.17446 1476 ft 113 kts 319°
2026-05-09 07:44 29.90786 31.16787 1486 ft 113 kts 319°
2026-05-09 07:45 29.91329 31.16118 1491 ft 115 kts 319°
2026-05-09 07:45 29.91903 31.15465 1474 ft 113 kts 329°
2026-05-09 07:45 29.92569 31.15038 1487 ft 109 kts 337°
2026-05-09 07:45 29.93238 31.14617 1485 ft 109 kts 337°
2026-05-09 07:46 29.93918 31.14237 1488 ft 108 kts 341°
2026-05-09 07:46 29.94608 31.13876 1487 ft 108 kts 341°
2026-05-09 07:46 29.95296 31.13518 1493 ft 108 kts 341°
2026-05-09 07:46 29.95989 31.13160 1493 ft 108 kts 341°
2026-05-09 07:47 29.96711 31.12972 1483 ft 103 kts 358°
2026-05-09 07:47 29.97427 31.12886 1486 ft 104 kts 358°
2026-05-09 07:47 29.98147 31.12803 1490 ft 104 kts 358°
2026-05-09 07:47 29.98876 31.12719 1488 ft 104 kts 358°
2026-05-09 07:48 29.99599 31.12633 1488 ft 104 kts 358°
2026-05-09 07:48 30.00321 31.12635 1486 ft 102 kts
2026-05-09 07:48 30.01028 31.12659 1485 ft 102 kts
2026-05-09 07:48 30.01748 31.12693 1476 ft 102 kts 10°
2026-05-09 07:49 30.02342 31.13086 1469 ft 97 kts 42°
2026-05-09 07:49 30.02813 31.13632 1485 ft 97 kts 43°
2026-05-09 07:49 30.03290 31.14195 1477 ft 98 kts 46°
2026-05-09 07:49 30.03474 31.14957 1454 ft 103 kts 85°
2026-05-09 07:50 30.03316 31.15768 1483 ft 103 kts 94°